Palm Springs, CA

10:18 AM PDT on September 21, 2017 (GMT -0700)
Palm Springs International

Weather History for KPSP - July, 2012

Change the Weather History Date:

Friday, July 20, 2012

  Actual Average Record
Temperature  
Mean Temperature 96 °F 93 °F  
Max Temperature 111 °F 108 °F 118 °F (1967)
Min Temperature 81 °F 78 °F 62 °F (1924)
Degree Days  
Heating Degree Days 0 0  
Month to date heating degree days 0 0  
Since 1 June heating degree days 0 0  
Since 1 July heating degree days 0 0  
Cooling Degree Days 31 28  
Month to date cooling degree days 536 540  
Year to date cooling degree days 2176 1946  
Since 1 June cooling degree days 1237 1187  
Growing Degree Days 46 (Base 50)    
Moisture  
Dew Point 51 °F    
Average Humidity 26    
Maximum Humidity 37    
Minimum Humidity 14    
Precipitation  
Precipitation 0.00 in 0.02 in 2.50 in (1979)
Month to date precipitation T 0.08  
Year to date precipitation 0.79 3.02  
Since 1 July precipitation T  
Snow  
Snow 0.00 in - - ()
Month to date snowfall 0.0  
Year to date snowfall 0.0  
Snow Depth 0.00 in    
Sea Level Pressure  
Sea Level Pressure 29.81 in    
Wind  
Wind Speed 3 mph (NW)    
Max Wind Speed 20 mph    
Max Gust Speed 29 mph    
Visibility 10 miles    
Events      
T = Trace of Precipitation, MM = Missing Value Source: NWS Daily Summary

Daily Weather History Graph

Daily Weather History Graph

Search for Another Location

Airport or City:

Trip Planner

Search our weather history database for the weather conditions in past years. The results will help you decide how hot, cold, wet, or windy it might be!

Date:

Astronomy

Jul. 20, 2012 Rise Set
Actual Time 5:49 AM PDT 7:54 PM PDT
Civil Twilight 5:21 AM PDT 8:22 PM PDT
Nautical Twilight 4:47 AM PDT 8:56 PM PDT
Astronomical Twilight 4:10 AM PDT 9:33 PM PDT
Moon 7:24 AM PDT (7/20) 8:46 PM PDT (7/20)
Length of Visible Light 15h 00m
Length of Day
14h 04m
Waxing Crescent, 3% of the Moon is Illuminated
Jul 20
Waxing Crescent
Jul 26
First Quarter
Aug 1
Full
Aug 9
Last Quarter
Aug 17
New

Hourly Weather History & Observations

Time (PDT) Temp. Heat Index Dew Point Humidity Pressure Visibility Wind Dir Wind Speed Gust Speed Precip Events Conditions
12:53 AM 91.0 °F - 50.0 °F 24% 29.83 in 10.0 mi Calm Calm - N/A   Clear
1:53 AM 87.1 °F - 51.1 °F 29% 29.82 in 10.0 mi SSE 3.5 mph - N/A   Clear
2:53 AM 86.0 °F - 48.9 °F 28% 29.83 in 10.0 mi South 3.5 mph - N/A   Clear
3:53 AM 84.0 °F - 52.0 °F 33% 29.82 in 10.0 mi Calm Calm - N/A   Clear
4:53 AM 84.9 °F - 51.1 °F 31% 29.83 in 10.0 mi Calm Calm - N/A   Clear
5:53 AM 82.9 °F - 52.0 °F 34% 29.84 in 10.0 mi Calm Calm - N/A   Clear
6:53 AM 84.0 °F 82.9 °F 55.0 °F 37% 29.86 in 10.0 mi Calm Calm - N/A   Scattered Clouds
7:53 AM 89.1 °F 86.7 °F 53.1 °F 29% 29.87 in 10.0 mi SSE 3.5 mph - N/A   Partly Cloudy
8:53 AM 95.0 °F 92.5 °F 53.1 °F 24% 29.88 in 10.0 mi Calm Calm - N/A   Clear
9:53 AM 100.0 °F - 50.0 °F 18% 29.87 in 10.0 mi Calm Calm - N/A   Partly Cloudy
10:53 AM 102.0 °F - 51.1 °F 18% 29.87 in 10.0 mi SSE 5.8 mph - N/A   Partly Cloudy
11:53 AM 105.1 °F - 50.0 °F 16% 29.85 in 10.0 mi Variable 4.6 mph - N/A   Partly Cloudy
12:53 PM 107.1 °F - 50.0 °F 15% 29.83 in 10.0 mi Variable 4.6 mph - N/A   Partly Cloudy
1:53 PM 107.1 °F - 52.0 °F 16% 29.81 in 10.0 mi ESE 8.1 mph - N/A   Clear
2:53 PM 107.1 °F - 52.0 °F 16% 29.79 in 10.0 mi Variable 4.6 mph - N/A   Scattered Clouds
3:53 PM 109.0 °F - 51.1 °F 15% 29.76 in 10.0 mi NE 4.6 mph - N/A   Clear
4:53 PM 109.9 °F - 50.0 °F 14% 29.74 in 10.0 mi NNW 11.5 mph 16.1 mph N/A   Clear
5:53 PM 109.0 °F - 48.9 °F 14% 29.73 in 10.0 mi NNW 17.3 mph 21.9 mph N/A   Clear
6:53 PM 106.0 °F - 50.0 °F 15% 29.74 in 10.0 mi NW 13.8 mph 18.4 mph N/A   Clear
7:53 PM 102.0 °F - 52.0 °F 19% 29.75 in 10.0 mi NW 17.3 mph 24.2 mph N/A   Clear
8:53 PM 100.0 °F 97.9 °F 53.1 °F 21% 29.77 in 10.0 mi NW 17.3 mph - N/A   Clear
9:53 PM 98.1 °F 95.7 °F 53.1 °F 22% 29.79 in 10.0 mi NW 10.4 mph - N/A   Clear
10:53 PM 95.0 °F 92.5 °F 53.1 °F 24% 29.79 in 10.0 mi NW 16.1 mph - N/A   Clear
11:53 PM 93.9 °F 91.4 °F 53.1 °F 25% 29.80 in 10.0 mi WNW 6.9 mph - N/A   Clear